GFSNE_850_thetae_090.txt.gz
Theta_e
310 309 309 308 308 309 309 308 308 311 312 314 313 314 313 314 313 313 311 310 309 308 306 305 305 306 306 307 307 308 307 309 309 310 310 310 312 317
309 308 308 308 308 307 308 307 307 310 310 311 312 312 312 311 312 311 310 309 308 306 304 304 305 306 306 306 306 307 306 308 307 309 310 310 311 317
308 308 308 307 307 307 307 306 307 308 310 311 309 310 311 311 310 309 308 307 306 305 303 302 304 304 304 303 304 305 306 307 310 313 312 311 312 317
308 307 307 307 307 306 305 306 306 306 307 307 307 309 309 309 309 308 306 305 305 303 302 301 300 300 299 300 302 304 306 306 309 312 314 314 314 317
307 306 306 305 306 305 305 303 304 305 304 304 304 305 307 307 306 305 304 304 304 302 300 298 294 293 292 295 298 303 304 306 308 311 313 314 315 316
306 305 305 304 304 304 303 303 302 302 303 303 304 304 304 305 304 303 302 302 300 298 294 291 290 290 290 290 291 295 301 303 306 308 310 310 311 313
305 303 301 301 301 302 301 301 301 302 302 303 304 304 303 303 302 300 300 298 294 291 290 289 289 289 289 290 290 290 292 298 301 305 305 308 309 309
301 301 300 301 301 300 301 302 302 302 302 302 303 302 302 300 296 295 292 291 290 289 289 289 289 288 288 289 289 289 289 290 294 299 301 303 303 304
301 300 300 300 300 297 294 293 299 300 300 299 298 296 294 293 292 290 290 290 289 288 288 288 288 288 288 288 288 288 288 289 289 289 292 296 299 300
299 299 299 299 294 289 289 290 290 290 290 289 289 290 290 290 290 290 289 288 288 288 288 288 288 287 288 289 289 289 289 289 289 289 289 289 289 289
299 298 298 296 289 290 290 289 289 289 289 289 289 289 289 289 288 288 288 288 287 287 288 288 288 288 288 289 289 289 290 290 290 290 290 290 290 290
298 297 294 288 289 289 289 288 289 289 289 290 289 288 288 288 289 288 288 287 287 287 287 287 288 289 289 289 289 289 290 289 290 290 290 290 290 290
292 289 288 288 289 289 288 288 289 289 289 289 289 289 289 290 289 288 288 288 287 287 287 288 288 288 288 288 289 289 289 289 289 289 289 290 289 289
288 288 288 288 289 289 288 288 287 288 289 288 289 289 289 289 288 287 287 287 287 287 287 287 286 286 287 287 287 288 288 288 288 289 288 288 288 288
287 288 288 289 289 288 288 288 287 288 288 288 288 289 288 288 288 287 287 287 288 289 290 290 287 286 286 286 286 286 287 287 287 287 287 288 288 288
287 287 288 288 288 288 288 288 288 288 288 288 288 289 288 288 288 288 288 288 288 287 286 286 286 286 286 286 287 286 286 286 287 287 288 288 288 288
288 287 287 287 288 288 288 288 288 288 288 288 288 288 288 288 288 288 288 288 287 286 285 285 285 286 286 286 287 287 286 287 287 287 288 288 288 287
288 288 288 288 288 287 287 287 287 287 287 287 287 287 288 288 288 288 289 287 287 286 285 284 285 285 286 286 286 287 286 287 287 287 287 287 288 286
288 288 288 288 288 288 287 287 287 287 286 286 287 287 287 286 287 287 287 287 286 285 285 285 285 285 285 286 286 286 286 286 286 286 286 286 288 288
288 288 288 288 288 288 287 287 287 286 286 286 286 286 286 286 285 285 285 285 285 285 286 286 287 285 284 285 286 287 287 286 285 286 286 286 287 288
290 289 289 289 289 288 288 288 288 287 287 286 286 286 286 286 286 285 284 284 286 287 288 288 286 284 284 285 286 287 286 286 285 285 285 285 286 287
296 295 294 290 289 289 289 289 288 289 288 287 287 287 287 287 286 285 284 286 288 288 288 285 283 282 283 286 287 286 287 286 285 284 285 285 285 285
297 297 296 296 293 290 290 289 290 291 294 293 291 292 292 289 287 286 286 288 287 287 287 285 283 284 285 285 285 285 286 286 285 284 285 284 284 284

GFSNE_850_thetae_096.txt.gz
Theta_e
315 314 313 311 310 310 309 309 310 311 311 312 311 310 312 312 314 312 312 312 311 310 309 309 308 305 304 306 306 306 307 307 307 307 308 309 309 311
315 313 312 311 310 309 309 308 308 309 309 309 309 309 309 310 311 311 310 309 310 309 309 307 306 304 303 305 305 305 306 307 305 305 306 309 309 310
313 311 310 310 309 309 308 308 307 307 308 308 307 307 308 308 309 308 307 308 307 307 307 306 304 302 301 300 301 302 304 306 305 309 310 310 310 310
310 310 309 309 308 308 307 307 306 305 305 305 306 307 307 308 307 307 307 306 306 305 305 304 303 302 299 298 298 299 302 305 307 312 312 313 312 311
310 309 309 308 307 307 306 306 305 304 303 304 304 304 304 304 304 305 306 305 305 304 303 302 301 299 294 291 291 293 300 304 307 311 313 314 315 316
309 308 307 307 306 305 305 305 302 302 302 303 303 303 303 303 303 303 304 304 303 303 301 300 299 293 291 290 290 290 294 303 306 309 312 315 315 316
308 307 306 306 305 303 303 303 302 301 302 302 302 302 302 303 303 303 303 302 301 300 300 296 291 290 290 290 290 290 290 295 304 307 309 312 314 314
308 307 305 303 302 301 301 301 301 301 301 301 301 302 302 302 302 302 301 300 297 295 291 290 289 289 289 289 289 289 290 290 296 303 306 308 309 311
307 305 304 301 301 300 300 299 299 300 301 301 301 301 301 301 300 300 297 294 293 290 290 289 289 288 288 289 289 288 289 289 290 293 301 304 304 307
305 303 301 301 300 299 299 293 290 290 293 297 300 300 299 297 295 294 292 291 290 289 288 288 289 288 288 288 288 289 289 289 289 289 290 295 299 301
304 302 301 301 300 298 295 290 290 290 290 290 290 289 289 290 290 290 290 289 288 288 288 288 288 288 288 288 289 289 290 290 290 290 290 289 289 290
303 301 300 299 298 298 290 290 290 289 289 290 289 288 289 289 289 288 288 288 287 287 288 288 288 288 289 289 289 289 289 290 289 290 290 290 290 290
302 300 299 298 297 291 289 290 289 289 289 289 290 289 289 289 289 288 289 289 288 288 288 288 289 289 289 289 289 289 289 289 289 289 289 289 290 290
301 299 298 293 290 288 289 289 289 288 289 289 290 289 289 290 290 290 289 289 289 288 288 289 290 289 288 287 287 288 288 288 289 289 289 289 289 289
300 299 295 289 288 288 289 289 288 288 288 289 289 289 289 289 289 289 289 289 289 290 291 291 293 292 289 288 287 287 287 287 287 288 288 288 288 288
299 300 294 288 287 288 288 288 288 288 288 288 288 288 288 289 289 288 289 289 289 290 291 290 289 288 288 287 287 287 287 287 287 288 288 288 288 288
300 298 294 288 287 288 288 288 288 288 288 288 288 288 288 288 288 288 288 288 289 290 291 290 289 289 288 288 288 287 287 287 287 287 288 288 288 288
299 298 296 291 288 287 288 288 288 288 288 288 288 288 288 287 287 288 288 288 288 288 289 289 289 289 288 289 289 288 288 288 288 288 288 288 288 288
298 297 297 295 290 288 287 287 287 287 287 287 287 287 287 287 287 287 287 287 287 287 288 288 288 287 287 288 289 289 288 287 287 289 289 288 288 288
297 297 297 296 292 289 288 288 288 288 287 287 287 287 286 286 287 287 287 287 286 286 286 286 286 286 285 287 289 289 288 287 287 287 288 289 289 289
298 297 297 296 295 291 288 288 288 287 287 287 287 287 286 286 286 286 286 286 286 285 285 287 286 284 286 288 288 289 287 286 285 286 287 287 288 289
298 297 297 296 296 295 289 287 287 287 287 288 288 287 287 287 287 286 286 286 286 286 287 285 284 285 288 288 288 286 284 284 285 286 286 286 286 286
299 298 297 297 296 296 294 288 288 288 288 288 289 288 288 288 290 291 289 286 286 288 287 285 284 285 287 287 287 286 285 285 285 285 286 286 286 286

GFSNE_850_thetae_099.txt.gz
Theta_e
314 315 316 315 314 311 310 310 310 312 312 312 313 311 310 309 311 311 312 311 311 311 310 309 309 309 307 305 305 306 306 307 307 307 307 307 308 309
317 315 315 314 312 310 309 309 310 310 310 309 309 309 309 308 309 308 310 310 309 308 309 309 308 306 305 302 302 305 305 306 306 305 304 304 307 309
316 315 314 313 311 310 309 308 308 308 308 308 308 308 307 307 307 307 308 307 307 308 307 307 306 305 304 301 300 300 301 304 305 307 311 311 312 309
315 314 311 310 309 309 308 308 308 307 307 306 307 305 306 306 306 307 307 306 307 306 306 305 305 303 303 299 295 295 298 301 304 308 311 312 314 315
313 311 310 309 308 308 307 307 306 306 305 304 304 304 304 304 304 304 304 304 305 305 304 304 303 302 300 293 291 291 293 300 304 308 312 313 314 313
310 309 309 308 307 307 306 306 305 305 303 302 303 303 303 303 303 303 303 304 303 303 303 302 301 300 293 291 291 291 291 296 304 307 311 315 316 316
309 308 307 307 306 306 306 305 304 303 302 302 302 302 302 302 303 303 303 302 302 302 301 300 298 292 290 290 290 290 291 291 301 306 310 311 315 316
308 307 307 306 306 305 304 302 302 302 302 301 301 301 302 302 302 302 302 302 300 297 296 294 290 290 289 290 289 289 289 290 293 303 306 309 311 312
307 306 306 305 304 304 302 301 301 300 300 301 301 301 301 302 302 301 300 299 297 294 291 290 289 289 288 289 289 289 289 289 290 293 303 305 308 309
306 306 305 304 303 302 300 301 299 294 293 299 301 301 301 300 300 299 298 295 293 291 289 288 289 289 289 289 289 289 289 289 289 289 291 299 303 304
305 305 304 303 302 300 299 300 292 290 290 290 290 291 294 294 292 292 292 291 290 289 289 288 289 289 288 289 289 289 290 290 290 290 289 289 291 296
305 304 303 302 301 299 298 297 290 290 291 290 290 290 289 289 289 290 290 289 289 289 289 288 289 288 289 290 290 290 290 290 290 290 290 290 290 289
304 304 303 301 299 297 297 292 290 290 290 289 290 289 289 289 289 288 289 289 289 289 289 289 289 289 289 289 289 289 289 290 290 290 290 290 290 291
304 303 302 300 299 297 293 289 289 289 289 289 289 289 289 290 290 290 290 290 289 289 289 289 290 292 290 290 290 289 288 289 289 290 290 290 290 290
302 301 300 299 296 291 289 289 289 288 288 288 289 289 289 289 289 290 290 290 289 289 290 292 293 293 292 290 289 289 288 288 288 288 288 289 289 289
300 300 300 297 293 289 288 288 289 288 288 287 288 289 289 289 289 289 289 289 289 290 291 292 292 290 290 290 290 289 289 288 288 288 288 288 288 288
301 300 299 298 292 288 288 288 288 288 288 288 288 288 288 288 289 289 289 289 289 290 291 292 291 291 291 291 290 290 289 289 288 288 288 288 288 288
300 300 299 299 296 290 288 288 288 288 288 288 287 288 288 288 288 288 288 288 288 289 289 290 290 290 291 290 290 290 290 288 288 288 288 289 289 289
299 299 299 299 298 295 290 288 288 288 288 288 288 288 288 288 288 288 288 288 288 288 288 288 289 289 289 289 288 288 290 290 289 287 287 289 290 290
299 299 299 298 297 296 295 290 287 287 287 287 287 287 287 288 287 287 287 287 287 287 287 287 287 287 287 286 286 287 289 289 289 287 288 289 289 289
300 299 299 298 297 296 296 292 288 288 288 288 287 287 287 287 287 287 286 286 286 286 286 286 286 285 287 286 285 287 289 289 288 287 286 286 287 288
299 300 299 298 297 296 295 294 290 288 288 288 288 287 287 287 287 287 286 286 286 286 286 285 286 287 287 285 285 288 288 288 288 286 285 286 287 287
299 299 299 298 297 296 295 294 292 289 287 287 287 287 287 287 287 287 287 287 287 287 286 286 286 288 287 285 285 288 287 287 286 286 287 287 286 287

GFSNE_850_thetae_105.txt.gz
Theta_e
323 323 323 325 325 323 321 318 313 313 312 312 312 312 312 312 311 309 308 308 309 309 310 310 308 308 308 307 307 306 305 301 304 306 306 306 306 306
324 323 325 323 322 317 314 313 313 312 311 310 311 311 312 311 309 308 307 306 307 307 307 307 307 306 306 306 305 305 302 299 301 304 305 305 306 305
325 324 324 321 317 312 313 313 313 311 310 310 310 310 310 309 308 307 305 306 306 305 306 306 306 306 306 304 304 304 299 296 297 300 304 306 307 309
325 325 324 321 313 314 314 314 311 310 309 309 308 308 307 307 307 305 305 305 305 304 304 305 305 305 305 303 303 300 294 292 294 300 306 309 311 313
324 325 323 319 313 314 314 313 310 309 309 308 307 306 306 306 304 304 303 303 303 303 303 303 304 304 303 303 301 292 291 291 293 302 307 310 313 314
323 321 319 315 314 313 311 310 310 309 308 307 306 305 303 304 303 303 303 303 303 303 302 303 303 302 302 300 292 291 291 291 292 304 308 310 314 313
320 315 312 312 312 310 310 309 309 308 307 306 305 304 303 302 302 302 302 302 302 302 302 302 301 301 299 293 291 290 291 291 291 303 307 309 312 314
314 312 312 313 312 309 310 308 308 307 306 305 305 303 303 302 302 301 302 302 302 302 301 301 298 296 291 290 290 290 290 290 291 295 305 309 310 312
311 311 310 309 308 309 308 307 307 307 306 304 303 302 302 302 301 301 301 301 301 299 299 295 292 290 290 289 290 290 290 289 290 291 299 304 308 310
309 309 309 308 308 307 307 306 306 305 305 303 303 301 300 301 301 301 301 300 299 298 297 294 291 290 289 289 289 289 290 290 290 290 291 298 304 308
308 308 307 307 307 307 306 306 305 304 303 302 301 299 298 300 300 299 299 299 298 297 294 291 290 290 289 289 289 290 290 290 290 290 290 291 296 305
307 306 307 307 306 305 306 305 304 303 302 301 297 291 291 297 300 300 299 298 296 294 291 290 290 289 290 290 290 291 291 291 291 291 291 290 290 293
305 305 305 305 305 304 304 304 304 300 300 298 292 291 290 290 290 290 293 292 291 290 290 290 290 289 290 291 290 291 291 291 291 290 290 291 291 290
304 304 304 303 303 302 301 301 300 298 298 295 291 290 290 289 289 290 290 290 290 290 289 289 289 290 291 293 293 294 291 290 289 290 290 290 290 290
304 304 303 301 300 301 300 300 299 297 298 293 290 290 289 289 289 289 289 288 289 289 288 289 289 292 296 295 293 291 291 291 290 289 289 289 290 290
300 301 300 300 300 300 299 298 297 297 297 291 290 289 288 289 289 288 289 289 289 289 288 289 290 295 294 292 292 291 291 291 290 290 289 289 288 288
300 300 299 298 298 299 299 298 296 296 292 289 288 288 288 288 289 289 288 288 289 289 289 289 292 293 292 292 292 292 292 292 292 291 290 289 289 289
298 298 297 297 297 298 298 296 296 295 290 288 288 288 288 288 288 288 288 288 289 289 289 289 290 291 291 291 291 292 291 291 291 292 291 289 289 289
296 296 296 297 297 297 296 296 296 294 291 289 289 288 288 287 287 288 288 288 288 288 288 288 288 290 291 291 291 291 290 290 289 290 291 292 290 289
296 295 295 295 296 296 297 296 296 292 291 289 289 288 288 287 287 287 287 287 288 287 287 287 288 288 289 289 289 289 288 289 288 288 291 291 290 290
295 295 295 295 295 295 297 297 295 293 290 289 288 288 288 287 287 287 287 287 287 287 287 287 288 287 286 286 287 287 288 288 287 288 290 290 289 290
294 294 295 295 295 296 296 296 296 295 292 289 288 287 287 287 287 287 287 287 287 287 287 286 286 286 286 286 286 286 288 288 286 287 289 289 288 287
293 294 294 294 295 296 296 296 295 295 294 294 291 287 287 286 287 287 287 286 286 286 286 286 286 286 286 286 285 285 287 288 286 286 288 288 288 287